Regional Weather Roundup
Issued by NWS

Home | Current Version | Previous Version | Graphics & Text | Print | Product List | Glossary On
Versions: 1 2 3 4 5 6 7 8 9 10 11 12 13 14 15 16 17 18 19 20 21 22 23 24 25 26 27 28 29 30 31 32 33 34 35 36 37 38 39 40 41 42 43 44 45 46 47 48 49 50
928
ASUS43 KOAX 210410
RWRNE

WEATHER ROUNDUP FOR NEBRASKA
NATIONAL WEATHER SERVICE OMAHA NE
1000 PM CST TUE FEB 20 2018

NOTES: SATELLITE DATA IS BEING USED TO AUGMENT CLOUD COVER ABOVE
       12000 FEET.
       "FAIR" INDICATES FEW OR NO CLOUDS BELOW 12,000 FEET WITH NO
       SIGNIFICANT WEATHER AND/OR OBSTRUCTIONS TO VISIBILITY.


NEZ001>004-019>022-054>056-210500-
NEBRASKA PANHANDLE

CITY           SKY/WX    TMP DP  RH WIND       PRES   REMARKS
SCOTTSBLUFF    CLEAR     -6 -11  79 NE6       30.22R WCI -19
ALLIANCE       CLEAR    -12 -14  90 W9        30.22R WCI -30
CHADRON        CLEAR    -10 -17  71 SW10      30.25R WCI -29
GORDON         FAIR     -15 -20  77 CALM      30.24R
KIMBALL        CLEAR     -6 -11  76 S5        30.16R WCI -16
SIDNEY         CLEAR     -9 -13  83 SW8       30.22R WCI -25
$$

NEZ057>060-069>072-079>082-210500-
SOUTHWEST NEBRASKA

CITY           SKY/WX    TMP DP  RH WIND       PRES   REMARKS
NORTH PLATTE   CLEAR     -3 -10  72 CALM      30.35R
IMPERIAL       CLEAR      1  -4  79 W6        30.31R WCI -10
LEXINGTON      CLEAR      8   2  75 NW3       30.37R
MCCOOK         CLEAR      8   3  80 NW5       30.36R WCI   0
OGALLALA       CLEAR     -1  -7  78 W6        30.31R WCI -13
$$

NEZ005>010-023>029-035>040-094-210500-
NORTH CENTRAL NEBRASKA

CITY           SKY/WX    TMP DP  RH WIND       PRES   REMARKS
VALENTINE      CLEAR    -10 -15  78 W7        30.34R WCI -25
AINSWORTH      CLEAR     -3  -8  80 W3        30.33R
BROKEN BOW     CLEAR      1  -5  75 CALM      30.34R
O`NEILL        CLEAR     -1  -5  83 W7        30.36R WCI -14
ORD            CLEAR      1  -4  79 NW6       30.37R WCI -10
THEDFORD         N/A     -6 -10  81 SW6       30.32R WCI -18
$$

NEZ041-046>049-061>064-073>077-083>087-210500-
SOUTH CENTRAL NEBRASKA

CITY           SKY/WX    TMP DP  RH WIND       PRES   REMARKS
GRAND ISLAND   CLEAR      9   2  73 N10       30.38R WCI  -5
AURORA         CLEAR      9   2  73 N9        30.39R WCI  -4
HASTINGS       CLEAR     10   2  69 N12       30.38R WCI  -5
HEBRON         PTCLDY    14   7  74 N10G17    30.41R WCI   1
HOLDREGE       CLEAR      8   4  80 N7        30.37R WCI  -3
KEARNEY        CLEAR      8   2  76 N9        30.39R WCI  -5
YORK           PTCLDY     9   5  85 N7        30.39R WCI  -3
$$

NEZ011>018-030>034-042>045-210500-
NORTHEAST NEBRASKA

CITY           SKY/WX    TMP DP  RH WIND       PRES   REMARKS
NORFOLK        CLEAR      6   0  76 NW9       30.38R WCI  -8
ALBION         PTCLDY     6   0  76 NW9       30.38R WCI  -8
BLAIR          PTCLDY    12   7  79 NW8       30.39R WCI   1
COLUMBUS       CLEAR      9   4  80 NW13      30.41R WCI  -7
FREMONT        CLOUDY    12   5  74 NW12      30.42R WCI  -2
TEKAMAH        CLOUDY    11   5  77 NW10      30.43R WCI  -3
WAYNE          CLEAR      7   2  80 NW8       30.39S WCI  -6
$$

NEZ050>053-065>068-078-088>093-210500-
SOUTHEAST NEBRASKA

CITY           SKY/WX    TMP DP  RH WIND       PRES   REMARKS
LINCOLN        CLOUDY    13   4  67 N17       30.43R WCI  -4
OMAHA EPPLEY   PTCLDY    13   6  74 NW14      30.42R WCI  -2
BEATRICE       CLOUDY    15  10  78 N16       30.40R WCI   0
FALLS CITY     PTCLDY    18  10  71 N13G21    30.39R WCI   5
NEBRASKA CITY  MOCLDY    15  11  85 N18       30.40R WCI  -2
PLATTSMOUTH    CLOUDY    14   9  79 NW14G20   30.40R WCI  -1
$$

NEZ044-045-051>053-067-210500-
OMAHA AREA

CITY           SKY/WX    TMP DP  RH WIND       PRES   REMARKS
OMAHA EPPLEY   PTCLDY    13   6  74 NW14      30.42R WCI  -2
BLAIR          PTCLDY    12   7  79 NW8       30.39R WCI   1
FREMONT        CLOUDY    12   5  74 NW12      30.42R WCI  -2
MILLARD        CLOUDY    15   7  71 NW6       30.43R WCI   6
OFFUTT AFB     PTCLDY    13   6  71 NW10G18   30.41R WCI   0
PLATTSMOUTH    CLOUDY    14   9  79 NW14G20   30.40R WCI  -1
WAHOO          FAIR      12   6  75 N13       30.42R WCI  -3
$$




USA.gov is the U.S. government's official web portal to all federal, state and local government web resources and services.